FENGYUN 1C DEB

Satellite information

Favourite Embed

Satellite Type and Status

DEBRISIN ORBIT

Key statistics

Satellite FENGYUN 1C DEB at a glance.

Uptime

9555

Days in orbit

Revolutions

≈ 14.3

Per day

Orbit

SSO

Sun Synchronous Orbit

Inclination

99.1

Latest

Satellite identification and parameters

Extended collection of information and parameters for FENGYUN 1C DEB.

Object identification

Identified? True

Debris? True

Object name: FENGYUN 1C DEB

International designator: 1999-025BKV

Object number (NORAD): 31215

Object ID (CCSDS): 31215

Country: PEOPLES REPUBLIC OF CHINA (PRC)

Current information (Y/N): Y

RCS size: SMALL

Orbital parameters

Period: 100.505 minutes

Inclination: 99.0862 deg

SMA: 7160.64 km

Apoapsis: 833.745 km

Periapsis: 731.265 km

RAAN: 18.9165 deg

Eccentricy: 0.0071558

Argument of periapsis: 81.1532 deg

Mean anomaly: 279.7744 deg

Mean motion: 14.32765071 rev/day

Mean motion (dot): 0.00001592 rev/day2

B* drag term: 0.00058481 1/REarth

Two-line elements (TLE)

Creation date: July 2, 2025, 2:08 a.m.

Reference frame: TEME

Reference center: EARTH

Epoch: July 1, 2025, 6:34 p.m. UTC

TLE line 0: 0 FENGYUN 1C DEB

TLE line 1: 1 31215U 99025BKV 25182.77400263 .00001592 00000-0 58481-3 0 9990

TLE line 2: 2 31215 99.0862 18.9165 0071558 81.1532 279.7744 14.32765071941778

Live tracking on map

Real-time ground track for satellite FENGYUN 1C DEB.

In-orbit conjunctions

A list of the most updated potential collisions computed for object FENGYUN 1C DEB.

Target Orbit TCA Probability of collision Miss distance Type
SL-8 R/B LEO 2025-05-10 15:48:37 0.0001055338 805.0 (m) ROCKET BODY
SCOUT G-1 DEB SSO 2024-11-10 15:37:04 0.001106343 689.0 (m) DEBRIS
SL-16 R/B LEO 2024-09-27 16:21:19 0.0002768156 661.0 (m) ROCKET BODY
FASAT B SSO 2024-07-30 06:36:59 0.000139018 921.0 (m) PAYLOAD

Associated space launch

Chinese polar orbiting meteorological satellite

FENGYUN 1C DEB was lifted into orbit during the mission ‘Long March 4B | Feng Yun 1C’, on board a Long March 4B space rocket.

The launch took place on May 10, 1999, 1:33 a.m. from Launch Complex 7.

For more information about the launch, click the button.

Launch to space Long March 4B | Feng Yun 1C
Long March 4B | Feng Yun 1C

Agency: N/A

Status: Launch Successful

Launch date: May 10, 1999, 1:33 a.m. UTC

Rocket: Long March 4B

Launch pad: Launch Complex 7

Location: Taiyuan Satellite Launch Center, People's Republic of China

...

Latest news about this satellite

There are no fresh news available about this satellite. Check back as we update our databases every day.


Newsletter sign-up

Weekly statistics, charts and insights to help you stay on top of the space industry.